Location: *
(39.6167°S, 171.5333°W)
Time: 20:04:07
(UTC+00:00)

USA 215 - Pass Details

Date: 13 May 2021
Orbit: 1100 x 1107 km, 123.0° (Epoch: 14 June)

Event Time Altitude Azimuth Distance (km) Brightness Sun altitude
Rises 17:29:59 0° 137° (SE) 3,956 6.6 -10.3°
Reaches altitude 10° 17:32:31 10° 140° (SE) 2,994 5.9 -9.9°
Maximum altitude 17:38:58 58° 216° (SW) 1,283 3.4 -8.7°
Drops below altitude 10° 17:45:23 10° 293° (WNW) 2,969 5.1 -7.5°
Sets 17:47:53 0° 297° (WNW) 3,922 5.7 -7.0°
